This is the latest recevied weather packets stored in our database for station/object S50ME-11. If no packets are shown the sender has not sent any weather packets the latest 10 day(s).
| Time | Temp. | Humidity | Pressure | Rain* | Wind** | Luminosity | Snow |
|---|---|---|---|---|---|---|---|
| 1777461350 | 19.44° C | 40% | 1024.3 hPa | - | - | - | - |
| 1777461347 | 19.44° C | 40% | 1024.3 hPa | - | - | - | - |
| 1777460453 | 19.44° C | 40% | 1024.8 hPa | - | - | - | - |
| 1777460446 | 19.44° C | 40% | 1024.8 hPa | - | - | - | - |
| 1777459549 | 20° C | 40% | 1025 hPa | - | - | - | - |
| 1777459546 | 20° C | 40% | 1025 hPa | - | - | - | - |
| 1777458681 | 19.44° C | 40% | 1024.9 hPa | - | - | - | - |
| 1777458650 | 19.44° C | 40% | 1024.9 hPa | - | - | - | - |
| 1777458646 | 19.44° C | 40% | 1024.9 hPa | - | - | - | - |
| 1777457748 | 18.89° C | 41% | 1024.5 hPa | - | - | - | - |
| 1777457745 | 18.89° C | 41% | 1024.5 hPa | - | - | - | - |
| 1777456906 | 18.89° C | 41% | 1023.7 hPa | - | - | - | - |
| 1777456850 | 18.89° C | 41% | 1023.7 hPa | - | - | - | - |
| 1777456844 | 18.89° C | 41% | 1023.7 hPa | - | - | - | - |
| 1777455945 | 18.33° C | 41% | 1024.4 hPa | - | - | - | - |
| 1777455943 | 18.33° C | 41% | 1024.4 hPa | - | - | - | - |
| 1777455044 | 17.78° C | 41% | 1024.7 hPa | - | - | - | - |
| 1777455041 | 17.78° C | 41% | 1024.7 hPa | - | - | - | - |
| 1777454144 | 17.22° C | 42% | 1024.1 hPa | - | - | - | - |
| 1777454141 | 17.22° C | 42% | 1024.1 hPa | - | - | - | - |
| 1777453240 | 17.22° C | 42% | 1024.6 hPa | - | - | - | - |
| 1777452346 | 17.22° C | 42% | 1024.6 hPa | - | - | - | - |
| 1777452340 | 17.22° C | 42% | 1024.6 hPa | - | - | - | - |
| 1777451502 | 16.67° C | 43% | 1024.4 hPa | - | - | - | - |
| 1777451440 | 16.67° C | 43% | 1024.4 hPa | - | - | - | - |
* Rain since midnight (hover to see other rain measurements)
** Current wind speed in m/s (hover to see current wind gust speed)